Voltar ao catálogo

QIANFAN-69

AtivoComunicaçõesPO
NORAD 62799·PAYLOAD·🇨🇳 China

Lançado Jan 23, 2025 de Taiyuan Satellite Launch Center

Loading…

Próximas Passagens (próximas 24 horas)

TLE

AtualizadoSource: Space-Track

Época: Sep 14, 2026, 13:58 UTC

1 62799U 25016Q   26257.58199395  .00000027  00000-0  23081-4 0  9995
2 62799  88.9644  74.2640 0013946 268.0607  91.8947 13.51024044 84520

Acompanhe QIANFAN-69 em tempo real com AllMySat

Download on the App Store